Theta_e
310 309 309 309 310 310 310 310 310 311 311 311 312 312 312 313 313 313 314 314 314 313 312 312 314 315 315 317 318 318 311 313 315 315 314 316 314 316 317 317 316 317 317 317 317
309 309 310 310 310 311 311 311 311 312 312 312 312 312 313 313 313 314 313 312 313 312 311 312 314 315 315 318 319 315 310 312 313 314 316 315 315 316 315 316 316 314 315 316 316
309 310 310 311 311 312 312 312 312 312 312 312 312 312 313 313 314 315 312 312 312 312 312 314 316 316 316 316 318 316 313 313 316 317 316 316 315 315 314 313 315 315 316 315 315
310 311 311 312 312 312 312 311 311 311 312 312 314 315 316 316 312 314 314 314 313 312 313 313 315 315 314 314 316 316 317 317 317 318 316 315 316 315 316 316 315 316 315 315 316
311 312 312 312 312 311 311 311 312 313 315 317 317 317 317 316 318 316 315 314 313 312 312 313 314 315 313 313 314 314 314 315 316 315 315 315 314 313 314 315 315 315 315 314 314
311 311 310 310 310 311 313 315 316 317 317 317 316 316 315 313 318 318 317 315 312 312 312 312 314 314 314 314 313 313 313 314 314 315 314 313 312 314 316 316 315 315 312 313 314
312 312 313 314 315 316 316 317 317 317 317 317 317 317 316 316 317 317 317 316 313 312 312 313 314 314 314 313 314 314 313 310 312 312 312 313 313 312 316 315 315 314 311 312 313
316 316 316 316 316 316 316 316 316 317 318 318 318 318 316 316 315 314 314 314 314 313 313 313 314 314 314 313 312 312 311 311 312 312 313 312 312 312 316 315 315 310 311 311 311
315 315 314 314 315 316 316 317 317 318 319 319 317 315 315 314 313 313 312 312 312 312 312 313 314 314 313 310 310 310 311 310 311 313 313 312 311 312 316 314 314 309 309 308 309
315 314 315 315 316 317 317 318 319 319 319 319 316 316 315 313 312 312 311 312 312 312 311 312 312 309 307 308 312 312 310 310 312 313 312 311 310 309 313 313 309 306 306 306 306
315 315 316 316 317 319 319 321 320 320 319 319 316 315 314 313 312 311 312 312 311 311 310 311 308 309 308 308 309 310 310 310 310 311 311 311 310 307 306 307 305 303 302 302 302
315 316 316 318 320 321 322 321 321 320 320 320 320 320 319 318 318 315 314 312 312 310 310 309 310 309 309 309 309 310 311 311 310 310 311 310 309 305 304 303 303 302 301 301 301
317 316 318 320 321 321 322 322 321 320 318 319 319 319 320 319 319 319 314 311 310 309 309 310 312 311 310 312 313 312 312 312 313 310 308 309 309 307 305 303 302 301 301 301 301
320 320 321 321 321 321 321 321 321 319 316 317 316 316 316 316 315 314 312 312 311 310 309 310 310 311 312 312 312 313 311 311 312 310 311 309 314 307 306 303 302 301 301 300 300
321 322 322 321 322 322 321 321 320 317 324 315 312 311 311 314 311 310 310 311 311 312 311 314 311 311 312 312 310 312 310 310 310 309 309 310 309 308 305 305 302 301 300 299 298
324 322 322 323 323 322 322 320 318 319 324 312 309 309 308 308 309 308 310 310 311 310 310 310 309 309 310 309 309 309 310 309 307 307 311 310 310 311 308 307 303 301 299 298 298
323 322 322 321 323 322 322 320 320 324 317 313 310 309 308 308 308 308 308 307 308 310 311 311 310 309 309 310 309 308 310 314 312 311 315 311 310 312 306 304 303 299 298 297 297
323 323 323 323 322 322 321 320 322 320 318 314 310 309 311 308 309 308 308 309 308 311 312 314 316 309 308 310 312 308 310 311 308 313 313 309 313 310 302 301 300 299 297 297 297
323 323 321 322 321 321 321 323 321 319 317 319 317 315 313 316 313 309 308 310 310 309 314 314 316 309 309 309 311 311 312 310 310 301 306 311 308 305 300 298 297 297 297 297 297
321 321 318 319 320 320 320 321 318 317 315 317 319 318 318 319 317 311 311 311 313 310 312 314 316 311 309 309 307 309 308 312 307 305 309 310 311 310 302 299 297 296 297 297 296
321 318 318 319 318 318 319 318 317 315 315 316 318 318 315 315 317 314 315 314 310 309 311 311 313 311 311 310 310 308 309 308 308 305 307 307 308 308 305 300 298 298 299 298 296
317 314 316 317 314 313 314 314 314 313 315 313 313 316 316 315 315 314 314 313 311 309 312 311 308 305 311 308 308 309 308 307 307 306 310 310 310 302 303 300 300 300 300 299 297
313 309 313 313 316 313 311 313 312 311 312 313 312 312 312 313 316 312 310 309 311 310 311 310 307 301 305 305 307 309 309 308 307 306 304 306 306 300 301 300 301 301 300 298 295
308 307 308 310 308 311 311 311 312 311 310 310 311 310 311 311 311 311 310 308 307 309 309 310 306 306 311 304 306 307 307 307 306 301 308 305 306 302 300 299 300 300 300 297 295
304 304 306 306 309 308 308 308 310 309 310 310 308 309 310 310 310 309 308 305 304 306 304 307 306 302 304 304 305 304 304 304 304 303 302 302 303 302 300 297 298 300 297 295 294
301 302 303 302 307 308 308 308 308 308 308 307 309 308 307 308 308 305 305 305 306 302 303 300 298 298 295 301 302 302 301 301 302 302 301 301 301 299 296 298 296 297 295 292 291
301 301 302 302 301 306 307 307 306 306 304 305 307 305 306 306 305 302 302 303 302 301 301 301 297 293 295 295 294 293 294 297 297 297 297 296 297 293 293 291 292 292 292 291 290
Wind_Speed
3 3 3 3 3 3 3 4 4 5 5 6 7 8 9 9 11 13 14 4 5 6 4 3 3 2 1 2 1 0 4 1 3 2 5 11 6 5 7 7 8 7 10 13 17
5 5 5 5 5 5 5 6 6 7 7 8 9 10 10 11 12 6 2 2 3 2 4 4 4 2 2 2 3 3 4 6 5 4 3 6 3 12 3 15 20 18 18 13 12
8 7 7 7 7 7 7 7 8 9 9 9 9 10 11 11 11 2 3 3 4 6 7 7 5 3 2 3 5 5 5 4 6 7 7 8 12 4 2 6 23 29 24 20 18
10 10 10 9 9 9 9 9 9 10 10 10 10 10 10 9 3 5 2 2 3 5 6 5 6 4 3 3 6 2 11 12 9 15 9 3 8 9 10 23 24 24 22 19 21
12 12 12 12 12 11 11 10 10 10 10 10 9 9 9 7 10 11 11 9 8 8 10 7 9 7 4 3 1 4 5 9 12 15 17 16 15 12 26 23 15 16 10 11 8
15 14 14 13 12 12 11 10 10 11 11 11 10 9 9 8 10 9 9 8 8 9 12 10 5 5 3 4 4 2 5 12 13 23 18 10 6 1 12 10 13 12 13 12 10
16 14 13 13 13 13 12 11 11 11 11 11 11 10 12 17 12 10 9 8 8 9 11 10 12 7 2 1 3 3 5 8 15 6 4 3 1 6 11 14 13 12 9 7 7
17 16 14 14 14 13 12 11 11 11 11 11 12 11 9 12 11 10 11 12 10 11 11 11 9 6 3 1 5 3 2 3 4 2 1 4 7 9 12 18 15 8 10 10 10
17 16 15 14 13 12 12 12 12 12 13 13 10 8 7 8 9 10 9 7 7 9 10 8 8 4 3 5 4 2 3 5 7 3 3 3 6 12 20 18 19 7 8 12 13
16 16 14 13 12 12 11 12 12 13 13 11 12 5 12 6 7 7 7 6 4 6 6 5 4 3 3 4 5 5 4 4 5 3 1 5 8 11 22 23 4 14 15 15 16
16 15 15 13 11 12 11 10 8 4 12 10 5 5 2 8 8 8 8 9 7 4 4 4 4 7 12 10 4 3 3 6 5 6 3 5 6 8 15 12 18 19 21 22 25
17 15 14 12 11 12 12 7 7 4 9 17 22 24 19 11 6 10 10 10 6 5 6 4 6 13 3 5 7 5 6 7 6 5 1 5 8 6 15 10 15 20 23 24 26
18 17 15 13 12 13 13 12 8 4 5 9 18 12 13 19 10 11 16 9 5 6 7 8 7 5 7 5 5 5 6 5 7 3 3 2 5 2 4 13 18 20 22 23 25
19 18 15 12 11 12 13 10 7 1 3 5 5 5 9 8 4 9 19 7 4 10 6 6 8 6 5 6 6 6 4 7 2 2 3 3 4 4 3 4 8 16 20 20 22
22 21 18 16 9 13 7 10 7 2 5 2 3 5 7 7 9 5 17 7 6 6 6 7 4 4 6 8 9 8 3 5 3 3 2 3 2 5 6 3 4 9 17 18 19
24 25 21 24 23 18 12 11 8 2 8 3 4 5 4 3 3 5 4 4 3 2 2 5 1 4 6 2 5 4 3 5 4 3 1 7 6 4 5 6 7 12 15 17 17
27 29 28 30 32 25 18 13 2 6 2 5 4 4 4 5 3 5 5 5 5 4 4 1 5 1 3 3 2 4 5 3 3 2 5 4 3 3 6 4 18 19 19 16 14
29 32 34 39 33 31 24 3 9 7 7 3 5 4 6 7 4 6 4 3 6 2 3 4 4 8 4 6 7 6 7 5 6 3 4 4 5 2 4 15 25 23 20 16 13
31 31 34 36 35 31 27 8 6 6 6 9 3 4 5 4 4 4 6 5 6 9 7 5 5 1 1 1 5 4 4 2 5 2 2 4 2 2 4 6 15 20 17 14 11
24 31 26 30 26 25 7 9 5 4 4 3 8 6 7 5 6 7 8 4 4 8 3 4 2 1 1 2 4 3 5 3 3 1 5 4 4 4 9 10 8 11 16 16 12
31 19 15 28 27 16 9 7 5 7 6 5 5 3 4 5 6 5 5 2 5 4 6 4 3 3 2 4 6 1 1 3 3 4 5 2 5 0 13 15 13 18 21 18 15
30 5 22 28 5 1 3 4 6 7 6 3 3 6 7 7 6 6 9 7 6 9 6 1 4 3 6 1 2 1 5 5 4 5 5 1 8 5 12 20 23 22 21 18 15
15 5 27 27 7 7 3 5 5 4 6 7 8 6 5 6 3 7 5 1 2 6 9 7 1 2 7 4 1 3 3 3 4 3 6 5 6 3 9 11 18 15 17 18 17
9 4 3 10 6 6 6 5 5 13 5 4 3 5 5 7 5 5 6 1 1 1 1 6 4 7 11 4 3 4 3 4 4 3 2 6 4 2 5 7 10 10 14 17 17
3 5 6 3 6 7 7 5 11 6 8 21 7 13 8 6 6 7 3 1 3 2 2 3 6 3 2 3 3 5 5 8 8 6 6 7 9 13 11 8 15 18 16 18 17
6 3 4 1 6 11 11 9 10 9 7 6 10 10 9 14 8 7 7 5 5 2 2 2 3 3 2 4 5 6 13 9 10 13 11 14 20 11 6 13 12 13 19 20 16
15 12 8 7 4 6 6 12 11 10 5 6 13 6 8 11 6 3 4 8 8 7 6 5 5 3 5 3 4 8 9 16 11 8 9 11 14 2 5 9 15 16 17 16 12
Wind_Direction
245 246 254 264 266 277 286 295 299 305 311 314 316 319 321 322 319 317 313 281 263 262 262 214 193 224 282 116 96 187 60 256 249 18 297 335 1 353 326 296 298 265 263 292 302
249 251 258 264 273 282 290 296 300 304 305 308 310 312 314 317 318 317 7 61 132 149 152 153 156 146 119 157 183 114 123 226 211 173 273 297 274 308 311 304 296 292 300 288 290
258 259 261 267 272 279 286 291 295 296 297 299 301 304 309 316 320 196 145 105 120 144 151 160 182 176 197 202 192 173 192 217 264 268 289 307 297 259 205 288 293 299 308 301 296
260 263 268 271 275 279 280 282 285 287 290 294 298 300 301 305 286 194 207 261 252 225 208 212 211 182 194 214 209 171 244 242 268 284 295 279 295 303 271 278 307 310 308 297 294
264 269 271 272 272 272 275 277 280 284 287 290 290 290 288 271 254 253 261 262 253 237 221 227 202 189 191 218 270 216 268 261 264 280 282 283 268 272 281 293 303 333 336 357 349
260 263 267 269 270 270 271 273 277 281 286 290 287 281 267 243 264 250 256 256 246 227 222 218 203 187 252 237 196 235 298 290 289 278 277 264 284 277 284 311 312 314 359 360 3
256 257 259 261 263 265 269 272 274 279 282 284 283 275 262 264 263 249 248 250 241 230 223 215 216 222 167 289 326 317 323 317 279 276 224 194 140 232 296 298 289 324 3 34 34
260 257 255 256 260 262 264 267 272 278 281 280 279 272 254 262 248 248 254 256 240 226 225 218 217 237 229 289 343 330 25 335 285 145 147 133 257 272 314 294 291 23 71 78 74
258 258 258 256 257 259 264 270 275 280 280 278 271 240 256 244 234 239 240 232 219 220 220 222 214 208 153 97 1 343 233 212 308 260 125 174 244 259 287 295 295 112 94 90 90
256 256 252 252 255 259 262 270 276 277 269 264 242 253 236 224 210 209 210 197 194 174 158 169 154 103 54 106 220 205 219 249 246 272 105 245 250 270 291 296 333 118 100 90 80
253 252 254 255 259 263 262 276 274 256 228 216 212 216 190 203 205 206 203 195 173 168 158 174 115 204 207 201 174 195 212 239 259 264 271 264 278 3 15 49 99 97 96 89 83
244 244 245 246 251 263 268 251 245 263 291 247 248 248 246 234 231 219 203 179 172 190 130 56 224 232 187 173 215 235 241 247 260 244 263 288 306 43 38 51 81 99 96 96 95
241 235 235 240 255 259 260 247 256 284 262 267 240 238 240 234 231 224 192 192 169 184 192 173 221 188 176 208 204 222 214 231 232 331 286 347 294 62 49 73 87 96 104 98 91
235 237 235 241 260 246 238 225 215 275 286 254 221 212 173 166 218 193 188 183 202 200 187 227 241 192 178 223 176 267 211 216 194 82 238 48 280 206 166 85 75 99 98 93 90
239 236 235 234 231 212 222 191 179 132 285 204 162 160 163 180 142 180 187 191 189 194 130 238 204 171 194 224 163 221 151 152 160 171 42 307 123 269 135 166 130 101 99 94 83
243 239 232 233 229 225 196 177 145 95 245 205 141 166 134 190 165 121 164 188 195 196 210 233 264 182 205 139 175 133 57 36 46 100 274 211 164 246 193 190 146 127 116 109 101
239 239 233 234 238 215 192 164 134 216 308 196 192 169 183 171 184 162 163 178 165 132 229 227 228 251 171 124 45 100 80 316 338 348 232 148 144 261 316 143 153 144 133 120 109
243 244 236 235 233 204 178 169 215 179 205 156 145 134 183 157 209 183 137 219 221 153 122 185 282 168 190 194 181 177 160 165 210 214 248 298 244 276 47 106 130 138 136 132 123
241 239 223 214 216 200 177 205 216 190 183 154 99 158 217 215 157 146 196 210 222 174 181 177 267 121 142 164 136 181 177 189 101 38 44 228 76 94 106 116 134 143 149 152 150
234 216 214 204 200 203 209 201 211 217 124 114 176 172 180 199 164 178 187 201 213 194 193 220 244 346 172 120 48 152 161 78 12 230 251 278 253 204 189 178 174 169 173 178 174
215 193 209 211 188 182 212 213 192 173 146 150 194 166 197 162 188 208 213 242 183 150 153 154 148 250 128 195 189 57 214 82 133 144 193 260 254 2 183 177 179 193 197 193 188
187 185 179 184 161 188 185 192 181 144 213 183 195 201 195 185 181 219 216 218 175 157 157 3 122 181 199 354 338 298 212 166 158 242 241 174 260 333 168 175 183 198 203 203 206
169 151 174 187 191 192 183 239 190 163 165 188 201 192 172 171 174 221 211 260 202 191 160 178 199 17 343 343 22 203 200 141 113 108 212 174 258 59 144 170 196 204 202 201 198
149 138 202 210 149 182 174 195 202 208 188 155 217 159 168 198 215 214 183 154 10 136 50 137 171 176 227 191 144 169 178 179 141 139 178 231 292 160 221 203 216 226 217 204 202
241 163 159 212 193 161 165 167 212 200 208 196 202 207 179 205 195 210 126 126 13 123 71 156 203 132 206 141 172 213 182 194 198 193 193 253 227 243 207 227 267 274 219 196 196
177 169 159 169 206 190 175 195 204 209 171 213 222 189 191 219 190 186 142 187 188 124 128 356 201 101 307 251 244 270 261 184 218 237 244 253 264 261 178 214 222 218 195 191 192
193 182 159 172 168 202 213 210 212 171 227 224 215 154 199 223 168 119 155 151 159 155 167 143 133 95 260 13 46 304 236 220 221 200 209 223 243 137 179 175 179 171 178 185 210